Regional Weather Roundup
Issued by NWS

Home | Current Version | Previous Version | Graphics & Text | Print | Product List | Glossary On
Versions: 1 2 3 4 5 6 7 8 9 10 11 12 13 14 15 16 17 18 19 20 21 22 23 24 25 26 27 28 29 30 31 32 33 34 35 36 37 38 39 40 41 42 43 44 45 46 47 48 49 50
504
ASUS43 KIND 140559
RWRIN

WEATHER ROUNDUP FOR INDIANA
NATIONAL WEATHER SERVICE INDIANAPOLIS IN
100 AM EST THU DEC 14 2017

NOTE: "FAIR" INDICATES FEW OR NO CLOUDS BELOW 12,000 FEET WITH NO
SIGNIFICANT WEATHER AND/OR OBSTRUCTIONS TO VISIBILITY.

* - STATION DOES NOT REPORT WEATHER SUCH AS PRECIPITATION OR FOG.

+ - STATION NOT QUALITY CONTROLLED BY THE NATIONAL WEATHER SERVICE.
    USE DATA WITH CAUTION...ESPECIALLY DEWPOINT AND RELATIVE
    HUMIDITY OBSERVATIONS.

INZ001>003-010>013-019-020-140700-
NORTHWEST INDIANA

CITY           SKY/WX    TMP DP  RH WIND       PRES   REMARKS
KNOX *+        CLOUDY    28  23  80 N17       29.70R WCI  16
LA PORTE +     CLOUDY    27  22  80 N21G29    29.71R HAZE    WCI  13
6HR MIN TEMP:  27; 6HR MAX TEMP:  33;

MICHIGAN CITY+ CLOUDY    28  21  74 N16G25    29.74R WCI  17
MONTICELLO +   CLOUDY    29  20  69 NW16      29.71R WCI  17
6HR MIN TEMP:  28; 6HR MAX TEMP:  37;

RENSSELAER +   CLOUDY    32  19  59 N14G21    29.74R WCI  22

$$

LMZ046-743>745-140700-
SOUTHERN LAKE MICHIGAN

STATION/POSITION TIME  TEMP    WIND        PRES    WAVE
                       AIR SEA DIR/SP/G            HT
                 (UTC) (F)     (DEG/KT/KT) (MB)    (FT)
BURNS HARBOR     0540   30     360/ 22/ 29 1007.1R
MICHIGAN CITY    0530   28     360/ 27/ 33   N/A

$$

INZ004-005-014>016-021>024-140700-
NORTH CENTRAL INDIANA

CITY           SKY/WX    TMP DP  RH WIND       PRES   REMARKS
GOSHEN         CLOUDY    20  15  81 N14       29.68R WCI   7
6HR MIN TEMP:  20; 6HR MAX TEMP:  34; 6HR PCP: TRACE;

PERU/GRISSOM   CLOUDY    28  23  80 NW17      29.66R WCI  16
SOUTH BEND     PTCLDY    18  15  88 N15       29.71R WCI   4
6HR MIN TEMP:  18; 6HR MAX TEMP:  32; 6HR PCP:  0.01;

WARSAW +       CLOUDY    21  18  86 N16       29.67R WCI   7

$$

INZ006>009-017-018-025>027-140700-
NORTHEAST INDIANA

CITY           SKY/WX    TMP DP  RH WIND       PRES   REMARKS
AUBURN +       CLOUDY    23  18  80 NW12G22   29.63R WCI  12
FORT WAYNE     CLOUDY    25  20  81 NW15G28   29.64R WCI  13
6HR MIN TEMP:  25; 6HR MAX TEMP:  36; 6HR PCP:  0.01;

KENDALLVILLE + CLOUDY    20  17  86 N17G24    29.62R WCI   6

$$

INZ028-029-035-036-043>045-051>053-140700-
WEST CENTRAL INDIANA

CITY           SKY/WX    TMP DP  RH WIND       PRES   REMARKS
CRAWFORDSVL +  CLOUDY    26  19  73 MISG      29.72R
6HR MIN TEMP:  26; 6HR MAX TEMP:  37;

GREENCASTLE +  CLOUDY    30  19  64 NW8G17    29.76R WCI  23
LAFAYETTE      CLOUDY    29  20  69 NW14G22   29.74R WCI  18
6HR MIN TEMP:  28; 6HR MAX TEMP:  38;

TERRE HAUTE    CLOUDY    31  20  63 NW16G29   29.79R WCI  20
6HR MIN TEMP:  31; 6HR MAX TEMP:  43; 6HR PCP: TRACE;


$$

INZ030>032-037>040-046>048-054>057-064-065-140700-
CENTRAL INDIANA

CITY           SKY/WX    TMP DP  RH WIND       PRES   REMARKS
FRANKFORT +    CLOUDY    31  22  68 NW18G25   29.72R WCI  19
6HR MIN TEMP:  31; 6HR MAX TEMP:  41;

GREENWOOD *+   CLOUDY    34  24  66 NW13G26   29.71R WCI  25
INDIANAPOLIS   CLOUDY    30  21  69 NW21G30   29.73R WCI  17
6HR MIN TEMP:  30; 6HR MAX TEMP:  42; 6HR PCP: TRACE;

-EAGLE CREEK   CLOUDY    30  19  63 NW22G31   29.71R WCI  17
6HR MIN TEMP:  30; 6HR MAX TEMP:  42;

KOKOMO +       FLURRIES  29  22  75 NW15G26   29.68R WCI  18
6HR MIN TEMP:  29; 6HR MAX TEMP:  39; 6HR PCP: TRACE;

MT COMFORT *+  CLOUDY    30  23  74 NW18G33   29.69R WCI  18
SHELBYVILLE    CLOUDY    33  21  61 NW23G35   29.69R WCI  21
6HR MIN TEMP:  33; 6HR MAX TEMP:  44; 6HR PCP: TRACE;


$$

INZ033-034-041-042-049-050-058-059-140700-
EAST CENTRAL INDIANA

CITY           SKY/WX    TMP DP  RH WIND       PRES   REMARKS
MUNCIE         CLOUDY    31  21  66 NW21G29   29.64R WCI  18
6HR MIN TEMP:  31; 6HR MAX TEMP:  40; 6HR PCP:  0.03;

RICHMOND +     CLOUDY    30  27  86 W29G36    29.61R WCI  15

$$

INZ060-061-067>069-081>083-085>088-140700-
SOUTHWEST INDIANA

CITY           SKY/WX    TMP DP  RH WIND       PRES   REMARKS
EVANSVILLE     CLOUDY    39  29  67 NW12G23   29.81R WCI  32
6HR MIN TEMP:  39; 6HR MAX TEMP:  48;

HUNTINGBURG +  CLOUDY    38  28  67 NW16G30   29.78R WCI  29
6HR MIN TEMP:  38; 6HR MAX TEMP:  48;


$$

INZ062-063-066-070>080-084-089>092-140700-
SOUTH CENTRAL AND SOUTHEAST INDIANA

CITY           SKY/WX    TMP DP  RH WIND       PRES   REMARKS
BLOOMINGTON    CLOUDY    35  23  61 NW12G28   29.73R WCI  27
6HR MIN TEMP:  35; 6HR MAX TEMP:  47; 6HR PCP: TRACE;

MADISON *+     CLOUDY    37  28  70 NW17G29   29.71R WCI  28
SEYMOUR +      CLOUDY    37  25  60 NW25G33   29.71R WCI  26

$$





USA.gov is the U.S. government's official web portal to all federal, state and local government web resources and services.